2001 OX13 

Epoch 2001 July 30.0 TT = JDT 2452120.5                 Nakano

M 352.41227              (2000.0)            P               Q

n   0.26771890     Peri.  276.36367     +0.87672548     +0.47725121

a   2.3842403      Node    55.14610     -0.40741936     +0.80300242

e   0.4600443      Incl.    4.18348     -0.25565972     +0.35695714

P   3.68           H   19.1           G   0.15           U   *

Residuals in seconds of arc 

010718 644  0.0   0.1-    010723 428  0.0   0.1+    010808 413  0.2+  0.1-  

010718 644  0.3+  0.3-    010724 644  0.2+  0.1+    010809 413  0.0   0.1-  

010718 644  0.3+  0.4-    010724 644  0.4+  0.1+    010809 413  0.1-  0.1+  

010719 644  0.3-  0.2+    010724 644  0.3+  0.1-    010809 413  0.2+  0.1-  

010719 644  0.3-  0.2+    010725 474  0.0   0.0     010809 422  0.4+  0.6-  

010719 644  0.3-  0.2-    010725 474  0.0   0.0     010809 422  0.3+  0.0   

010719 422  0.2+  0.3-    010725 474  0.1+  0.1-    010810 644  0.7-  0.2+  

010720 428  0.7+  0.3-    010725 474  0.0   0.1+    010810 644  0.2-  0.5+  

010720 428  0.4-  0.5+    010730 360  0.1-  0.1+    010810 644  0.2-  0.2+  

010720 422  0.4-  0.0     010730 360  0.1+  0.5-    010822 413  0.1-  0.0   

010722 474  0.2-  0.1+    010730 360  0.2+  0.2+    010822 413  0.1-  0.1-  

010722 474  0.1-  0.2-    010730 413  0.2+  0.0     010822 413  0.1-  0.2-  

010722 474  0.2-  0.0     010730 413  0.0   0.1-    010823 402  0.4-  0.1-  

010722 474  0.5-  0.2+    010730 413  0.1+  0.1-    010823 402  0.1-  0.1+  

010722 474  0.4-  0.1+    010808 413  0.2-  0.1-    010823 402  0.9+  0.2+  

010723 428  0.5+  0.5+    010808 413  0.1-  0.1-                            

 

NAKANO

         **** Don't distribute anyone except personal use only ****

                (C) Copyright 2001 OAA/ComputingSection

write mail from CFAD0::NAKANO on 2001-08-25 05:27:03(JST).

 



–ß‚è‚Ü‚·B